Location: Oberkirch
(48.5323°N, 8.0787°E)
Time: 21:23:28
(UTC+00:00)

Tiros 1 - Pass Details

Date: 22 February 2026
Orbit: 618 x 649 km, 48.4° (Epoch: 9 March)

Event Time Altitude Azimuth Distance (km) Brightness Sun altitude
Rises 08:05:58 0° 253° (WSW) 2,915 10.2 14.7°
Reaches altitude 10° 08:08:18 10° 252° (WSW) 2,004 9.4 15.0°
Maximum altitude 08:12:54 77° 167° (SSE) 646 7.6 15.6°
Drops below altitude 10° 08:17:28 10° 82° (E) 1,990 10.5 16.2°
Sets 08:19:46 0° 81° (E) 2,894 11.2 16.5°
